Rogers City, MI

8:06 AM EDT on May 25, 2017 (GMT -0400)
Presque Isle County

Weather History for KPZQ - February, 2014

Change the Weather History Date:

Sunday, February 2, 2014

  Actual Average (KAPN) Record (KAPN)
Temperature  
Mean Temperature 10 °F -  
Max Temperature 19 °F 27 °F 46 °F (1991)
Min Temperature 2 °F 6 °F -27 °F (1959)
Degree Days  
Heating Degree Days 54    
Moisture  
Dew Point 9 °F    
Average Humidity 82    
Maximum Humidity 95    
Minimum Humidity 65    
Precipitation  
Precipitation 0.00 in - - ()
Sea Level Pressure  
Sea Level Pressure 30.12 in    
Wind  
Wind Speed 6 mph (West)    
Max Wind Speed 10 mph    
Max Gust Speed 17 mph    
Visibility 8 miles    
Events Snow    
Averages and records for this station are not official NWS values.
T = Trace of Precipitation, MM = Missing Value Source: NWS Daily Summary

Daily Weather History Graph

Daily Weather History Graph

Search for Another Location

Airport or City:

Trip Planner

Search our weather history database for the weather conditions in past years. The results will help you decide how hot, cold, wet, or windy it might be!

Date:

Astronomy

Feb. 02, 2014 Rise Set
Actual Time 7:54 AM EST 5:43 PM EST
Civil Twilight 7:23 AM EST 6:15 PM EST
Nautical Twilight 6:48 AM EST 6:50 PM EST
Astronomical Twilight 6:13 AM EST 7:25 PM EST
Moon 9:09 AM EST (2/2) 9:39 PM EST (2/2)
Length of Visible Light 10h 51m
Length of Day
9h 48m
Waxing Crescent, 11% of the Moon is Illuminated
Feb 2
Waxing Crescent
Feb 6
First Quarter
Feb 14
Full
Feb 22
Last Quarter
Mar 1
New

Hourly Weather History & Observations

Time (EST) Temp. Windchill Dew Point Humidity Pressure Visibility Wind Dir Wind Speed Gust Speed Precip Events Conditions
12:15 AM 12.0 °F 4.1 °F 10.8 °F 95% 29.97 in 10.0 mi SW 4.6 mph - N/A   Overcast
12:35 AM 13.6 °F 6.0 °F 12.2 °F 94% 29.98 in 10.0 mi WSW 4.6 mph - N/A   Overcast
12:54 AM 13.6 °F 7.7 °F 12.2 °F 94% 29.98 in 10.0 mi WSW 3.5 mph - N/A   Overcast
1:15 AM 14.7 °F 5.9 °F 13.3 °F 94% 29.98 in 10.0 mi West 5.8 mph - N/A   Overcast
1:34 AM 16.0 °F 5.3 °F 14.2 °F 93% 29.98 in 10.0 mi West 8.1 mph - N/A   Overcast
1:55 AM 16.2 °F 7.6 °F 14.4 °F 93% 29.98 in 10.0 mi West 5.8 mph - N/A   Overcast
2:15 AM 16.0 °F 8.8 °F 14.2 °F 93% 29.99 in 10.0 mi West 4.6 mph - N/A   Overcast
2:34 AM 16.2 °F 7.6 °F 14.0 °F 91% 30.00 in 10.0 mi West 5.8 mph - N/A   Overcast
2:55 AM 16.3 °F 7.8 °F 14.4 °F 92% 30.00 in 10.0 mi West 5.8 mph - N/A   Overcast
3:14 AM 16.3 °F 7.8 °F 14.0 °F 90% 30.01 in 10.0 mi West 5.8 mph - N/A   Overcast
3:35 AM 16.2 °F 4.7 °F 13.8 °F 90% 30.00 in 10.0 mi West 9.2 mph - N/A Snow Light Snow
3:55 AM 15.4 °F 4.6 °F 12.9 °F 90% 30.00 in 10.0 mi WNW 8.1 mph - N/A   Mostly Cloudy
4:14 AM 14.7 °F 4.8 °F 12.0 °F 89% 29.99 in 10.0 mi WNW 6.9 mph - N/A   Scattered Clouds
4:35 AM 14.0 °F 6.5 °F 11.7 °F 90% 30.01 in 10.0 mi West 4.6 mph - N/A   Overcast
4:55 AM 13.6 °F 4.6 °F 11.3 °F 90% 30.02 in 10.0 mi West 5.8 mph - N/A   Overcast
5:14 AM 12.9 °F 5.2 °F 10.8 °F 91% 30.02 in 10.0 mi West 4.6 mph - N/A   Overcast
5:35 AM 12.0 °F 2.7 °F 10.0 °F 92% 30.04 in 10.0 mi West 5.8 mph - N/A   Scattered Clouds
5:55 AM 12.0 °F 2.7 °F 9.9 °F 91% 30.04 in 10.0 mi WSW 5.8 mph - N/A   Clear
6:14 AM 11.7 °F 1.1 °F 9.5 °F 91% 30.03 in 10.0 mi WSW 6.9 mph - N/A   Scattered Clouds
6:35 AM 12.0 °F 2.7 °F 9.7 °F 90% 30.03 in 10.0 mi West 5.8 mph - N/A   Scattered Clouds
6:55 AM 12.6 °F 2.2 °F 10.2 °F 90% 30.04 in 10.0 mi West 6.9 mph - N/A   Clear
7:14 AM 12.7 °F 1.4 °F 10.2 °F 90% 30.05 in 10.0 mi WSW 8.1 mph - N/A   Clear
7:35 AM 13.1 °F 2.8 °F 10.4 °F 89% 30.05 in 10.0 mi West 6.9 mph - N/A   Mostly Cloudy
7:54 AM 12.9 °F 2.6 °F 10.2 °F 89% 30.06 in 10.0 mi West 6.9 mph - N/A   Overcast
8:15 AM 13.1 °F 2.8 °F 10.4 °F 89% 30.07 in 10.0 mi West 6.9 mph - N/A Snow Light Snow
8:35 AM 13.1 °F 0.9 °F 10.2 °F 88% 30.08 in 5.0 mi West 9.2 mph - N/A Snow Light Snow
8:54 AM 13.1 °F 1.8 °F 10.0 °F 88% 30.08 in 4.0 mi West 8.1 mph - N/A Snow Light Snow
9:15 AM 13.6 °F 2.5 °F 10.2 °F 86% 30.09 in 4.0 mi West 8.1 mph - N/A Snow Light Snow
9:35 AM 14.0 °F 2.0 °F 10.4 °F 86% 30.09 in 3.0 mi West 9.2 mph - N/A Snow Light Snow
9:54 AM 14.9 °F 5.0 °F 10.9 °F 84% 30.09 in 4.0 mi West 6.9 mph - N/A Snow Light Snow
10:15 AM 16.0 °F 3.6 °F 11.3 °F 82% 30.10 in 3.0 mi West 10.4 mph - N/A Snow Light Snow
10:34 AM 16.7 °F 5.3 °F 11.7 °F 81% 30.10 in 4.0 mi West 9.2 mph - N/A Snow Light Snow
10:55 AM 17.1 °F 5.8 °F 11.8 °F 80% 30.10 in 4.0 mi West 9.2 mph - N/A Snow Light Snow
11:15 AM 18.3 °F 8.2 °F 12.7 °F 79% 30.11 in 7.0 mi West 8.1 mph - N/A Snow Light Snow
11:35 AM 18.5 °F 13.3 °F 13.1 °F 79% 30.12 in 7.0 mi WNW 3.5 mph - N/A Snow Light Snow
11:54 AM 18.3 °F 11.5 °F 13.3 °F 81% 30.12 in 4.0 mi West 4.6 mph - N/A Snow Light Snow
12:14 PM 18.1 °F 7.9 °F 13.1 °F 81% 30.12 in 2.0 mi West 8.1 mph - N/A Snow Light Snow
12:35 PM 18.5 °F 10.4 °F 13.1 °F 79% 30.12 in 2.0 mi WNW 5.8 mph - N/A Snow Light Snow
12:54 PM 18.5 °F 9.3 °F 13.5 °F 81% 30.13 in 2.5 mi West 6.9 mph - N/A Snow Light Snow
1:15 PM 18.5 °F 9.3 °F 14.0 °F 83% 30.13 in 1.2 mi WNW 6.9 mph - N/A Snow Light Snow
1:35 PM 18.9 °F 8.0 °F 13.5 °F 79% 30.13 in 4.0 mi WNW 9.2 mph - N/A Snow Light Snow
1:54 PM 18.5 °F 8.4 °F 13.1 °F 79% 30.13 in 4.0 mi NW 8.1 mph - N/A Snow Light Snow
2:15 PM 18.5 °F 7.5 °F 13.1 °F 79% 30.13 in 3.0 mi NW 9.2 mph - N/A Snow Light Snow
2:34 PM 19.0 °F 10.0 °F 14.0 °F 81% 30.13 in 1.8 mi WNW 6.9 mph - N/A Snow Light Snow
2:55 PM 18.5 °F 10.4 °F 13.3 °F 80% 30.14 in 2.5 mi NW 5.8 mph - N/A Snow Light Snow
3:15 PM 18.5 °F 9.3 °F 12.0 °F 76% 30.14 in 5.0 mi West 6.9 mph - N/A Snow Light Snow
3:34 PM 19.4 °F 7.9 °F 9.9 °F 66% 30.15 in 10.0 mi WNW 10.4 mph 17.3 mph N/A   Overcast
3:55 PM 18.3 °F 7.3 °F 8.6 °F 66% 30.15 in 10.0 mi West 9.2 mph - N/A   Mostly Cloudy
4:15 PM 18.5 °F 7.5 °F 9.1 °F 67% 30.15 in 10.0 mi WNW 9.2 mph - N/A   Overcast
4:34 PM 18.3 °F 8.2 °F 8.8 °F 66% 30.17 in 10.0 mi West 8.1 mph - N/A   Overcast
4:55 PM 18.3 °F 6.6 °F 8.2 °F 65% 30.17 in 10.0 mi West 10.4 mph 16.1 mph N/A   Overcast
5:14 PM 16.7 °F 7.2 °F 7.5 °F 67% 30.18 in 10.0 mi West 6.9 mph - N/A   Overcast
5:34 PM 16.2 °F 5.5 °F 6.8 °F 67% 30.20 in 10.0 mi WNW 8.1 mph - N/A   Overcast
5:54 PM 14.7 °F 3.8 °F 5.9 °F 68% 30.22 in 10.0 mi West 8.1 mph - N/A   Scattered Clouds
6:14 PM 13.8 °F 2.7 °F 5.4 °F 69% 30.22 in 10.0 mi West 8.1 mph - N/A   Scattered Clouds
6:35 PM 12.7 °F 3.6 °F 4.6 °F 70% 30.23 in 10.0 mi West 5.8 mph - N/A   Clear
6:54 PM 12.2 °F 1.7 °F 4.1 °F 70% 30.24 in 10.0 mi West 6.9 mph - N/A   Clear
7:15 PM 11.3 °F 1.9 °F 3.6 °F 71% 30.25 in 10.0 mi West 5.8 mph - N/A   Clear
7:35 PM 9.7 °F 1.4 °F 2.5 °F 73% 30.25 in 10.0 mi West 4.6 mph - N/A   Clear
7:54 PM 9.7 °F 1.4 °F 2.3 °F 72% 30.24 in 10.0 mi West 4.6 mph - N/A   Clear
8:15 PM 8.1 °F -2.0 °F 1.8 °F 75% 30.24 in 10.0 mi West 5.8 mph - N/A   Clear
8:35 PM 8.8 °F 2.2 °F 1.8 °F 73% 30.23 in 10.0 mi West 3.5 mph - N/A   Mostly Cloudy
8:54 PM 8.4 °F -0.1 °F 1.4 °F 73% 30.22 in 10.0 mi WNW 4.6 mph - N/A   Scattered Clouds
9:15 PM 3.6 °F -3.8 °F -0.6 °F 83% 30.23 in 10.0 mi West 3.5 mph - N/A   Clear
9:34 PM 5.0 °F -4.1 °F 0.1 °F 80% 30.22 in 10.0 mi West 4.6 mph - N/A   Mostly Cloudy
9:55 PM 2.1 °F -7.4 °F -2.0 °F 83% 30.22 in 10.0 mi SW 4.6 mph - N/A   Mostly Cloudy
10:14 PM 5.7 °F -3.2 °F 0.9 °F 80% 30.23 in 10.0 mi SW 4.6 mph - N/A   Overcast
10:35 PM 6.8 °F -0.1 °F 1.2 °F 78% 30.23 in 10.0 mi SW 3.5 mph - N/A   Overcast
10:55 PM 6.4 °F -2.4 °F 1.2 °F 79% 30.24 in 10.0 mi SSW 4.6 mph - N/A   Overcast
11:14 PM 6.8 °F -2.0 °F 1.4 °F 79% 30.24 in 10.0 mi SW 4.6 mph - N/A   Overcast
11:35 PM 7.0 °F -1.7 °F 1.8 °F 79% 30.24 in 10.0 mi SW 4.6 mph - N/A   Overcast
11:55 PM 8.2 °F 1.6 °F 2.8 °F 79% 30.26 in 10.0 mi SW 3.5 mph - N/A   Overcast